[Iaude] MPEC W77: 2016 WU3 [a=1.45,e=0.12,i=16.8,H=20.4]

mpec at si.edu mpec at si.edu
Fri Nov 25 11:03:54 EST 2016


M.P.E.C. 2016-W77                                Issued 2016 Nov. 25, 15:51 UT
 
     The Minor Planet Electronic Circulars contain information on unusual
         minor planets and routine data on comets.  They are published
    on behalf of Division F of the International Astronomical Union by the
          Minor Planet Center, Smithsonian Astrophysical Observatory,
                          Cambridge, MA 02138, U.S.A.

             Prepared using the Tamkin Foundation Computer Network

                              MPC at CFA.HARVARD.EDU
            URL http://www.minorplanetcenter.net/    ISSN 1523-6714


                                   2016 WU3
 
Observations:
     K16W03U* C2016 11 23.39679 04 45 25.59 +35 49 56.8          19.1 VqEW077G96
     K16W03U  C2016 11 23.40858 04 45 24.66 +35 49 23.6          19.0 VqEW077G96
     K16W03U  C2016 11 23.41289 04 45 24.18 +35 49 11.0          17.8 VqEW077G96
     K16W03U  C2016 11 23.47139 04 45 19.62 +35 46 26.6          19.1 VqEW077I52
     K16W03U  C2016 11 23.47435 04 45 19.36 +35 46 18.0          19.0 VqEW077I52
     K16W03U  C2016 11 23.47560 04 45 19.29 +35 46 14.6          19.4 VqEW077I52
     K16W03U  C2016 11 23.47812 04 45 19.10 +35 46 07.2          19.0 VqEW077I52
     K16W03U  C2016 11 23.80513 04 44 58.81 +35 30 48.3          18.7 RqEW077246
     K16W03U  C2016 11 23.80646 04 44 58.75 +35 30 46.5                qEW077246
     K16W03U  C2016 11 23.80674 04 44 58.64 +35 30 45.7          18.6 RqEW077246
     K16W03U KC2016 11 23.89544 04 44 51.80 +35 26 39.0          19.1 VSEW077C43
     K16W03U KC2016 11 23.89871 04 44 51.48 +35 26 29.8          19.3 VSEW077C43
     K16W03U KC2016 11 23.90208 04 44 51.18 +35 26 21.0          19.1 VSEW077C43
     K16W03U  C2016 11 24.27279804 44 24.56 +35 09 05.8          18.7 GUEW077H01
     K16W03U  C2016 11 24.27584604 44 24.30 +35 08 57.3          18.7 GUEW077H01
     K16W03U  C2016 11 24.28622704 44 23.44 +35 08 28.1          18.6 GUEW077H01
     K16W03U  C2016 11 24.29415604 44 22.78 +35 08 05.8          18.6 GUEW077H01
     K16W03U  C2016 11 24.37622 04 44 15.98 +35 04 13.3          19.1 VqEW077I52
     K16W03U  C2016 11 24.38075 04 44 15.63 +35 04 00.6          19.3 VqEW077I52
     K16W03U  C2016 11 24.38271 04 44 15.45 +35 03 54.7          19.3 VqEW077I52
     K16W03U  C2016 11 24.38626 04 44 15.17 +35 03 44.4          19.2 VqEW077I52
     K16W03U  C2016 11 24.52734 04 44 06.99 +34 56 59.9          19.7 RoEW077300
     K16W03U  C2016 11 24.53335 04 44 06.48 +34 56 43.0          19.5 RoEW077300
     K16W03U  C2016 11 24.53636 04 44 06.22 +34 56 34.3          19.6 RoEW077300
     K16W03U  C2016 11 24.53936 04 44 06.00 +34 56 26.2          20.0 RoEW077300
     K16W03U  C2016 11 24.54236 04 44 05.78 +34 56 18.3          19.8 RoEW077300
     K16W03U  C2016 11 25.22055 04 43 16.48 +34 23 48.7          19.1 VqEW077I52
     K16W03U  C2016 11 25.22698 04 43 15.96 +34 23 30.7          19.0 VqEW077I52
     K16W03U  C2016 11 25.23086 04 43 15.65 +34 23 19.6          19.1 VqEW077I52
     K16W03U  C2016 11 25.23361 04 43 15.43 +34 23 11.5          18.9 VqEW077I52
     K16W03U  C2016 11 25.42878 04 42 58.92 +34 13 44.5          19.1 RoEW077926
     K16W03U  C2016 11 25.43756 04 42 58.18 +34 13 18.5          19.2 RoEW077926
     K16W03U  C2016 11 25.44502 04 42 57.59 +34 12 56.5          19.2 RoEW077926
     K16W03U  C2016 11 25.51450 04 42 52.02 +34 09 28.3          19.1 VqEW077I52
     K16W03U  C2016 11 25.51646 04 42 51.88 +34 09 22.5          19.1 VqEW077I52
     K16W03U  C2016 11 25.51867 04 42 51.70 +34 09 15.7          19.1 VqEW077I52
     K16W03U  C2016 11 25.52063 04 42 51.57 +34 09 10.0          19.1 VqEW077I52
 
Observer details:
246 Klet Observatory-KLENOT.  Observers M. Tichy, J. Ticha.  Measurer M. Tichy.
    1.06-m KLENOT Telescope + CCD.
300 Bisei Spaceguard Center--BATTeRS.  Observers S. Urakawa, T. Nimura.  1.0-m
    f/3.0 reflector + CCD.
926 Tenagra II Observatory.  Observers M. Schwartz, P. R. Holvorcem.  Measurer
    M. Schwartz.  0.81-m f/7 Ritchey-Chretien + CCD.
C43 Hoyerswerda.  Observer P. Lindner.  0.30-m f/6.3 Schmidt-Cassegrain + CCD.
G96 Mt. Lemmon Survey.  Observer R. G. Matheny.  Measurers E. J. Christensen,
    D. C. Fuls, A. R. Gibbs, A. D. Grauer, J. A. Johnson, R. A. Kowalski,
    S. M. Larson, G. J. Leonard, R. G. Matheny, R. L. Seaman, F. C. Shelly.
    1.5-m reflector + 10K CCD.
H01 Magdalena Ridge Observatory, Socorro.  Observers W. H. Ryan, E. V. Ryan.
    Measurer W. H. Ryan.  2.4-m f/8.9 reflector + CCD.
I52 Steward Observatory, Mt. Lemmon Station.  Observers D. C. Fuls,
    J. A. Johnson.  Measurers E. J. Christensen, D. C. Fuls, A. R. Gibbs,
    A. D. Grauer, J. A. Johnson, R. A. Kowalski, S. M. Larson, G. J. Leonard,
    R. G. Matheny, R. L. Seaman, F. C. Shelly.  1.0-m reflector + CCD.
 
Orbital elements:
2016 WU3                                                 Earth MOID = 0.2972 AU
Epoch 2017 Feb. 16.0 TT = JDT 2457800.5                 MPC
M  26.85435              (2000.0)            P               Q
n   0.56175565     Peri.  195.02282     +0.00436410     -0.96017814
a   1.4546921      Node   255.33917     +0.94467210     +0.09558496
e   0.1215610      Incl.   16.78350     +0.32798717     -0.26252897
P   1.75           H   20.4           G   0.15           U   7
Residuals in seconds of arc
161123 G96  0.0   0.1+    161124 H01  0.2+  0.1-    161125 I52  0.3-  0.5-
161123 G96  0.4+  0.1-    161124 H01  0.1+  0.1-    161125 I52  0.2-  0.1-
161123 G96  1.2-  0.6-    161124 H01  0.2+  0.1-    161125 I52  0.0   0.2-
161123 I52  0.1+  0.1+    161124 H01  0.2+  0.1-    161125 I52  0.1+  0.4-
161123 I52  0.2-  0.1-    161124 I52  0.3-  0.2-    161125 926  0.0   0.1+
161123 I52  0.1+  0.1+    161124 I52  0.1+  0.1+    161125 926  0.2-  0.1+
161123 I52  0.2+  0.2-    161124 I52  0.1-  0.2-    161125 926  0.1+  0.3+
161123 246  0.3+  0.6-    161124 I52  0.1+  0.3-    161125 I52  0.1-  0.1+
161123 246  0.8+  1.3+    161124 300  0.2+  0.2+    161125 I52  0.1+  0.2+
161123 246  0.3-  1.2+    161124 300  0.1-  0.1+    161125 I52  0.0   0.0
161123 C43  0.6+  0.4-    161124 300  0.3-  0.2-    161125 I52  0.2+  0.2+
161123 C43  0.1-  0.5-    161124 300  0.0   0.1+
161123 C43  0.5-  0.0     161124 300  0.3+  0.6+

Ephemeris:
2016 WU3                 a,e,i = 1.45, 0.12, 17                  q = 1.2779
Date    TT    R. A. (2000) Decl.     Delta      r     Elong.  Phase     V
2016 10 26    04 55 26.3 +48 54 37   0.4467  1.3216   129.0    35.8    20.7
...
2016 11 10    04 57 05.8 +44 05 17   0.3674  1.3045   143.7    26.7    20.0
...
2016 11 18    04 51 15.5 +39 39 10   0.3346  1.2969   153.7    19.8    19.6
...
2016 11 24    04 44 43.6 +35 21 57   0.3163  1.2920   162.1    13.6    19.2
2016 11 25    04 43 31.5 +34 34 31   0.3138  1.2912   163.6    12.5    19.2
2016 11 26    04 42 18.1 +33 45 52   0.3116  1.2905   165.1    11.4    19.1
...
2016 12 02    04 34 48.8 +28 32 50   0.3021  1.2865   173.4     5.1    18.8
...
2016 12 10    04 25 41.6 +21 06 11   0.3011  1.2823   169.9     7.7    18.9
...
2016 12 25    04 16 10.9 +08 35 56   0.3330  1.2781   148.0    24.1    19.7

A. U. Tomatic                (C) Copyright 2016 MPC           M.P.E.C. 2016-W77




More information about the Iaude mailing list